This is the latest recevied weather packets stored in our database for station/object NN3A-3. If no packets are shown the sender has not sent any weather packets the latest 10 day(s).
| Time | Temp. | Humidity | Pressure | Rain* | Wind** | Luminosity | Snow |
|---|---|---|---|---|---|---|---|
| 1777501333 | 14.44° C | 100% | 1006.2 hPa | 2.79 mm | - | - | - |
| 1777501033 | 14.44° C | 100% | 1006.2 hPa | 2.79 mm | - | - | - |
| 1777500433 | 14.44° C | 100% | 1006.2 hPa | 2.79 mm | - | - | - |
| 1777500135 | 14.44° C | 100% | 1006.2 hPa | 2.79 mm | - | - | - |
| 1777499834 | 15° C | 100% | 1005.9 hPa | 2.79 mm | - | - | - |
| 1777498934 | 14.44° C | 100% | 1005.9 hPa | 4.57 mm | - | - | - |
| 1777498635 | 15° C | 100% | 1005.9 hPa | 4.57 mm | - | - | - |
| 1777498335 | 14.44° C | 100% | 1005.9 hPa | 4.57 mm | - | - | - |
| 1777498035 | 15° C | 100% | 1005.9 hPa | 4.57 mm | - | - | - |
| 1777497735 | 15° C | 100% | 1005.9 hPa | 4.57 mm | - | - | - |
| 1777497435 | 14.44° C | 100% | 1005.9 hPa | 4.57 mm | - | - | - |
| 1777497136 | 13.89° C | 100% | 1005.9 hPa | 4.57 mm | - | - | - |
| 1777496835 | 14.44° C | 100% | 1005.9 hPa | 4.57 mm | - | - | - |
| 1777496537 | 15° C | 100% | 1005.9 hPa | 4.57 mm | - | - | - |
| 1777496235 | 13.89° C | 100% | 1005.6 hPa | 4.57 mm | - | - | - |
| 1777495936 | 13.89° C | 100% | 1005.6 hPa | 4.57 mm | - | - | - |
| 1777494436 | 14.44° C | 99% | 1005.9 hPa | 0.25 mm | - | - | - |
| 1777494136 | 14.44° C | 99% | 1005.9 hPa | 0.25 mm | - | - | - |
| 1777493837 | 15° C | 99% | 1005.9 hPa | 0.25 mm | - | - | - |
| 1777493237 | 15° C | 99% | 1005.9 hPa | 0.25 mm | - | - | - |
| 1777492937 | 15° C | 99% | 1006.2 hPa | 0.25 mm | - | - | - |
| 1777492637 | 15° C | 99% | 1006.6 hPa | 0.25 mm | - | - | - |
| 1777492337 | 14.44° C | 99% | 1006.2 hPa | 0.25 mm | - | - | - |
| 1777491738 | 15° C | 99% | 1006.2 hPa | 0.25 mm | - | - | - |
| 1777491438 | 15° C | 99% | 1006.2 hPa | 0.25 mm | - | - | - |
* Rain latest hour (hover to see other rain measurements)
** Current wind speed in m/s (hover to see current wind gust speed)